Location: Biberach+an+der+Riss
(48.0937°N, 9.7888°E)
Time: 19:10:53
(UTC+01:00)

ISS - Pass Details

Date: 07 January 2018
Orbit: 402 x 407 km, 51.6° (Epoch: 17 January)

Event Time Altitude Azimuth Distance (km) Brightness Sun altitude
Exits shadow 05:56:41 37° 31° (NNE) 647 -2.7 -21.4°
Drops below altitude 10° 05:59:14 10° 73° (ENE) 1,470 -0.1 -21.0°
Sets 06:01:24 0° 80° (E) 2,331 1.3 -20.6°
